Flag for Canada Weather past 2 weeks in St. John's, Newfoundland and Labrador, Canada

Now
25 °F

Overcast.


Feels Like: 17 °F
Forecast: N/A
Wind: 7 mph from Northwest

Location: St. John's

Current Time: Dec 21, 2014 at 8:11:42 PM

Latest Report: Dec 21, 2014 at 7:30 PM


Visibility: 15 mi

Pressure: 30.29 "Hg

Humidity: 86%

Dew point: 21 °F

Location of St. John'sLocation

Historic Weather in St. John's — Graph

°F

St. John's temperature yesterday

Maximum temperature yesterday: 34 °F (at 11:30 AM)
Minimum temperature yesterday: 30 °F (at 4:30 PM)
Average temperature yesterday: 32 °F

Past Weeks' High & Low Weather Summary

 TemperatureHumidityPressure
High54 °F (Dec 13, 11:30 AM)100% (Dec 7, 6:30 PM)30.82 "Hg (Dec 7, 6:30 PM)
Low12 °F (Dec 8, 6:30 AM)57% (Dec 8, 1:30 PM)29.35 "Hg (Dec 19, 5:30 AM)
Average36 °F90%30.09 "Hg
* Reported Dec 6 6:30 PM — Dec 21 6:30 PM, St. John's, Weather by CustomWeather, © 2014

Note: Actual official high and low records may vary slightly from our data, if they occured in-between our weather recording intervals... More about our weather records

Advertising

St. John's weather history for previous 24 hours

 ConditionsComfort  
Time TempWeatherWind HumidityBarometerVisibility
6:30 PM
Dec 21
25 °FOvercast.7 mph86%30.28 "Hg15 mi
5:30 PM27 °FOvercast.7 mph80%30.27 "Hg15 mi
4:30 PM27 °FOvercast.6 mph80%30.27 "Hg15 mi
3:30 PM27 °FOvercast.9 mph80%30.27 "Hg15 mi
2:30 PM27 °FOvercast.10 mph80%30.26 "Hg15 mi
1:30 PM27 °FOvercast.9 mph80%30.25 "Hg15 mi
12:30 PM27 °FOvercast.12 mph80%30.25 "Hg15 mi
11:30 AM28 °FOvercast.9 mph74%30.27 "Hg15 mi
10:30 AM28 °FOvercast.14 mph74%30.28 "Hg15 mi
9:30 AM28 °FOvercast.13 mph74%30.27 "Hg15 mi
8:30 AM28 °FOvercast.10 mph74%30.26 "Hg15 mi
7:30 AM28 °FOvercast.13 mph74%30.24 "Hg15 mi
6:30 AM28 °FOvercast.12 mph80%30.24 "Hg15 mi
5:30 AM28 °FOvercast.13 mph80%30.23 "Hg15 mi
4:30 AM28 °FOvercast.16 mph80%30.22 "Hg15 mi
3:30 AM28 °FOvercast.14 mph80%30.22 "Hg15 mi
2:30 AM30 °FOvercast.18 mph75%30.21 "Hg15 mi
1:30 AM30 °FOvercast.16 mph75%30.20 "Hg15 mi
12:30 AM30 °FOvercast.17 mph80%30.20 "Hg15 mi
11:30 PM
Dec 20
30 °FOvercast.17 mph75%30.20 "Hg15 mi
10:30 PM32 °FOvercast.16 mph75%30.21 "Hg15 mi
9:30 PM30 °FOvercast.16 mph80%30.20 "Hg15 mi
8:30 PM32 °FOvercast.20 mph69%30.20 "Hg15 mi
Weather by CustomWeather, © 2014

See weather overviewHow to use our weather pages